EW0860 Weather Reports


Display with metric or nautical units.
time (UTC)temp
F
wind
direction
speed
MPH
gust
MPH
rain 1hr
in
rain 24hr
in
rain mn
in
humidity
%
barometer
mb
20260504081510 66 21 0.0 0.0 0.00 0.00 0.00 56 1001.8
20260504044539 67 16 0.0 4.0 0.00 0.00 0.00 59 1003.5
20260504043042 68 14 3.0 5.0 0.00 0.00 0.00 55 1003.8
20260504041535 66 26 2.0 5.0 0.00 0.00 0.00 60 1005.1
20260504040034 64 23 2.0 5.0 0.00 0.00 0.00 69 1005.5
20260504034534 64 25 0.0 2.0 0.00 0.00 0.00 73 1004.5
20260504033031 64 24 0.0 2.0 0.00 0.00 0.00 73 1004.9
20260504031531 64 24 0.0 3.0 0.00 0.00 0.00 72 1004.5
20260504030031 64 21 0.0 2.0 0.00 0.00 0.00 73 1004.9
20260504024531 64 21 0.0 2.0 0.00 0.00 0.00 72 1004.6
20260504023029 64 21 0.0 2.0 0.00 0.00 0.00 70 1004.5
20260504021533 65 21 0.0 2.0 0.00 0.00 0.00 69 1004.4
20260504020034 66 21 0.0 0.0 0.00 0.00 0.00 67 1004.3
20260504014534 67 21 0.0 0.0 0.00 0.00 0.00 65 1004.3
20260504013025 69 23 0.0 0.0 0.00 0.00 0.00 62 1004.2
20260504011524 71 23 0.0 0.0 0.00 0.00 0.00 60 1004.2
20260504010022 73 25 0.0 0.0 0.00 0.00 0.00 57 1004.2
20260504004521 75 359 0.0 0.0 0.00 0.00 0.00 52 1004.3
20260504003019 78 359 0.0 0.0 0.00 0.00 0.00 45 1004.5
20260504001519 80 305 0.0 0.0 0.00 0.00 0.00 40 1004.5
20260504000018 80 359 0.0 2.0 0.00 0.00 0.00 38 1004.6
20260503234520 80 305 1.0 3.0 0.00 0.00 0.00 37 1004.8
20260503233015 80 305 1.0 5.0 0.00 0.00 0.00 36 1004.9
20260503231520 81 289 2.0 5.0 0.00 0.00 0.00 35 1005.0
20260503230015 80 288 1.0 6.0 0.00 0.00 0.00 36 1005.2
20260503224511 81 276 2.0 7.0 0.00 0.00 0.00 35 1005.4
20260503223010 81 269 1.0 7.0 0.00 0.00 0.00 34 1005.4
20260503221509 81 211 4.0 8.0 0.00 0.00 0.00 36 1005.5
20260503220007 81 348 2.0 6.0 0.00 0.00 0.00 35 1005.7
20260503214520 81 282 2.0 7.0 0.00 0.00 0.00 35 1005.8
20260503213005 81 305 3.0 8.0 0.00 0.00 0.00 36 1006.1
20260503211502 81 275 2.0 8.0 0.00 0.00 0.00 36 1006.3
20260503210100 81 300 2.0 7.0 0.00 0.00 0.00 36 1006.3
20260503204559 81 234 3.0 12.0 0.00 0.00 0.00 36 1006.5
20260503203056 81 274 2.0 8.0 0.00 0.00 0.00 36 1006.7
20260503201553 80 299 2.0 7.0 0.00 0.00 0.00 37 1006.9
20260503200100 80 262 2.0 9.0 0.00 0.00 0.00 38 1007.1
20260503194558 80 258 3.0 11.0 0.00 0.00 0.00 38 1007.2
20260503193057 80 316 2.0 12.0 0.00 0.00 0.00 39 1007.4
20260503191549 80 265 3.0 10.0 0.00 0.00 0.00 39 1007.6
20260503190048 79 179 3.0 9.0 0.00 0.00 0.00 40 1007.7
20260503184551 78 303 4.0 12.0 0.00 0.00 0.00 41 1007.9
20260503183041 78 287 3.0 9.0 0.00 0.00 0.00 44 1008.2
20260503181542 76 137 5.0 15.0 0.00 0.00 0.00 44 1008.5
20260503180046 74 206 4.0 16.0 0.00 0.00 0.00 47 1008.8
20260503174539 74 192 5.0 13.0 0.00 0.00 0.00 47 1009.1
20260503173035 74 208 5.0 12.0 0.00 0.00 0.00 46 1009.3
20260503171522 73 181 7.0 15.0 0.00 0.00 0.00 46 1009.3